GEFSMW_500_meanwind_108.txt.gz
Wind_Speed
8 10 11 13 15 16 18 19 20 21 20 20 20 20 19 19 19 18 17 16 15 14 14 14 15 16 18 20 22 23 25 27 27 28 29 30 31 31 30 30 30 30 29
7 9 11 13 15 16 17 19 20 21 22 21 21 20 20 20 19 18 17 16 15 14 13 13 13 14 16 18 20 21 23 25 27 27 28 28 30 31 31 32 32 31 31
7 9 11 13 14 16 17 19 20 21 22 22 21 21 21 20 20 19 17 16 15 13 12 11 11 12 13 15 18 20 21 23 25 27 27 28 29 30 32 33 34 33 32
6 8 10 12 14 16 17 19 20 21 22 22 22 22 22 22 21 20 18 16 15 13 11 10 10 10 11 13 15 18 20 22 23 26 26 27 29 30 31 32 33 34 33
5 7 9 11 13 15 17 19 20 21 22 22 23 22 22 22 22 21 19 17 15 13 12 10 10 9 9 10 13 15 17 20 22 24 25 25 28 29 29 31 33 33 33
4 6 9 11 13 15 16 18 20 21 22 23 23 23 23 23 22 21 20 18 16 14 12 10 10 9 8 9 9 11 15 17 20 21 23 24 25 26 28 30 31 32 32
4 6 8 10 12 14 16 17 19 21 22 23 23 23 23 23 23 22 21 19 18 15 13 11 10 8 7 6 7 8 11 14 17 19 20 22 24 24 26 28 30 30 31
4 6 8 10 11 13 15 17 19 20 22 23 24 24 23 23 23 23 21 20 19 17 14 12 11 9 7 6 6 7 9 12 14 16 18 20 22 23 24 25 28 30 30
3 5 7 9 11 13 14 16 18 20 21 22 23 24 24 23 23 22 22 21 20 18 16 13 11 10 8 7 5 5 7 10 12 13 15 18 20 22 23 23 25 28 29
3 5 6 8 10 12 14 16 18 19 21 21 22 23 24 24 24 23 22 21 20 19 18 15 13 11 10 8 6 5 6 8 10 11 13 15 17 19 21 22 23 26 28
3 5 6 8 9 11 13 15 17 19 20 21 22 23 24 24 24 24 23 22 20 19 18 17 15 13 11 9 7 6 5 6 8 10 11 13 15 17 19 21 22 24 25
4 5 6 8 9 11 13 15 16 18 19 20 21 22 23 23 24 24 24 23 21 20 19 18 16 14 12 10 8 6 5 5 5 7 9 11 13 15 18 20 22 23 24
5 6 7 8 9 11 12 14 16 17 18 20 21 21 22 23 23 23 23 22 22 21 20 19 17 15 13 11 9 7 6 5 5 6 7 9 11 13 15 18 21 23 24
6 7 7 8 9 11 12 13 15 16 17 19 20 21 21 22 22 22 22 22 21 21 20 19 17 16 14 12 10 8 6 5 5 5 5 7 8 10 12 15 17 20 22
7 7 8 8 9 11 12 13 14 16 17 18 19 20 21 21 21 21 21 21 21 20 20 19 18 16 15 13 11 10 8 7 7 6 6 5 6 8 10 11 13 16 19
8 8 8 9 9 10 12 13 14 15 16 17 18 19 20 21 21 21 20 20 20 20 19 18 17 16 15 14 12 11 10 9 9 8 7 6 6 6 8 10 12 13 16
9 9 9 9 10 11 12 13 14 15 16 17 18 18 19 20 20 20 20 20 20 20 19 18 17 16 15 14 13 12 11 10 10 9 8 7 6 6 7 8 10 11 13
11 10 10 10 10 11 12 13 14 15 16 17 17 18 19 19 19 19 19 19 19 19 19 18 18 17 15 14 13 12 12 11 10 10 9 8 7 7 7 8 9 10 12
12 12 12 12 12 12 13 13 14 15 16 17 17 18 18 19 19 19 18 18 18 18 18 18 17 16 16 15 14 13 12 11 11 10 10 9 9 8 8 8 9 10 12
14 13 13 13 13 13 13 14 15 16 17 17 18 18 18 19 19 18 18 18 18 18 18 17 17 16 15 15 14 14 14 13 12 11 10 10 10 10 10 10 10 11 11
15 15 15 15 14 14 15 15 16 17 17 18 18 18 19 19 19 19 19 18 19 18 18 18 17 16 16 15 15 14 14 14 13 13 12 12 11 11 11 11 11 12 13
17 16 16 16 16 16 16 16 17 17 18 18 18 19 19 19 19 19 19 19 19 19 18 18 18 17 17 16 16 15 15 15 14 14 13 13 13 12 12 12 12 12 13
18 18 18 18 18 18 18 18 18 18 19 19 19 20 20 20 20 20 20 20 20 19 19 19 18 18 18 18 17 17 16 16 15 15 15 14 14 14 13 13 13 13 14
20 20 20 20 20 20 19 20 20 20 20 20 20 21 21 21 21 21 21 21 21 20 21 21 20 20 20 19 19 19 18 18 17 17 16 16 16 15 15 15 15 16 16
22 22 22 22 22 22 21 21 22 22 22 22 22 22 22 22 22 22 22 22 22 22 22 22 22 22 21 21 21 20 20 20 20 19 19 18 18 18 17 17 18 18 18
24 24 24 24 24 23 23 23 23 23 23 23 23 23 23 23 23 24 24 24 24 24 24 24 24 24 24 23 23 22 22 21 21 21 21 21 21 21 21 21 21 21 21

GEFSMW_500_meanwind_114.txt.gz
Wind_Speed
4 5 6 7 9 10 11 13 14 15 16 17 18 18 18 17 17 17 16 15 14 13 13 13 13 13 14 16 17 19 21 23 24 25 26 27 29 29 29 30 31 31 31
4 4 5 7 8 10 11 12 14 15 16 17 18 18 18 18 17 17 17 16 14 13 12 11 11 11 12 13 15 17 19 21 23 24 26 27 28 30 29 30 31 32 32
4 4 5 6 8 9 11 12 14 15 16 17 18 18 19 18 18 18 17 16 14 12 10 10 10 9 10 10 12 15 17 19 21 23 25 27 28 28 29 31 31 32 33
4 4 4 6 7 9 10 12 14 15 16 17 18 19 19 19 19 19 18 16 14 12 10 9 9 8 8 8 10 11 14 16 18 21 23 25 26 28 28 30 31 32 33
4 3 4 5 7 8 10 11 13 15 17 18 18 19 19 20 20 19 18 17 14 12 11 10 8 8 7 7 7 9 11 13 15 18 21 22 25 26 27 27 29 31 32
4 4 4 5 6 8 9 11 13 15 17 18 18 19 20 20 20 19 19 17 15 13 11 10 9 8 7 5 5 7 9 11 13 15 18 20 22 24 26 26 28 30 31
5 4 4 5 6 8 9 11 13 15 16 17 18 19 20 20 20 19 19 18 16 14 12 10 9 8 6 5 4 5 7 10 12 13 15 17 19 21 23 24 27 29 30
5 4 4 5 6 8 9 11 12 14 16 17 18 19 20 20 20 19 19 18 17 15 13 12 10 9 7 5 4 3 5 7 10 12 14 15 16 17 20 22 23 25 27
6 5 5 5 6 8 9 10 12 13 15 16 18 18 19 20 20 19 18 18 18 16 15 13 11 9 8 6 4 3 3 5 7 9 12 14 15 16 17 18 20 21 23
7 6 6 6 6 7 8 10 11 13 14 16 17 18 19 19 19 19 19 19 18 17 15 14 12 10 8 6 4 2 3 4 6 7 10 11 13 15 15 17 18 19 21
8 7 6 6 6 7 8 9 10 12 13 15 16 17 18 19 19 19 19 18 18 17 16 15 14 12 10 7 5 3 2 2 4 6 7 9 10 13 14 15 17 18 19
8 7 7 6 7 7 8 9 10 11 12 14 15 16 17 18 19 19 19 18 17 17 16 15 14 13 11 8 6 4 3 2 2 4 6 7 9 10 12 14 16 17 19
9 8 8 7 7 7 8 8 9 10 12 13 14 15 16 17 18 19 18 18 17 16 16 15 14 13 12 10 7 5 4 3 2 3 4 6 7 9 10 12 14 16 18
10 9 8 8 7 7 8 8 9 10 11 12 14 15 16 17 18 18 18 18 17 16 15 14 14 13 12 11 9 7 5 3 3 3 4 5 6 8 9 12 13 15 17
11 10 9 9 9 8 8 8 9 10 11 12 13 14 15 16 17 18 18 17 17 16 15 14 14 13 12 11 9 8 7 5 4 3 4 4 5 6 8 9 11 13 14
12 12 11 10 10 9 9 9 9 10 11 12 13 14 15 15 16 17 17 17 16 16 15 14 13 13 12 11 10 9 7 6 5 4 4 4 4 5 6 7 9 10 12
13 13 12 11 11 11 10 10 10 10 11 12 12 13 14 15 16 16 16 16 16 16 15 14 13 13 12 11 11 10 9 7 6 6 6 5 5 6 7 8 9 10 11
15 14 13 13 12 12 12 11 11 11 12 12 13 13 14 15 15 16 16 16 16 15 14 14 13 12 12 11 11 10 10 9 8 8 7 7 7 7 8 9 10 10 11
16 15 15 15 14 13 13 13 13 13 13 13 13 14 14 15 15 15 15 15 15 15 14 14 13 13 12 12 11 11 11 10 9 9 9 9 9 9 9 9 10 11 12
17 17 17 16 16 15 15 14 14 14 14 14 14 14 15 15 15 16 15 15 15 15 15 14 14 13 13 13 12 12 11 11 11 10 10 10 10 10 10 10 11 11 12
19 18 18 18 17 17 16 16 15 15 15 15 15 16 16 16 16 16 16 15 15 15 15 15 15 14 14 14 13 13 13 13 12 12 12 12 12 12 12 12 13 13 13
20 20 20 20 19 18 18 18 17 17 17 17 17 17 17 17 17 17 17 16 16 16 16 16 16 16 16 15 15 15 14 14 14 13 13 13 13 14 14 14 14 14 15
22 22 22 22 21 20 20 19 19 19 19 19 18 18 18 18 18 18 17 17 17 17 17 17 17 17 17 17 17 17 16 16 15 15 15 15 15 15 15 15 15 16 16
24 24 24 23 23 22 22 22 22 21 21 21 20 20 20 19 19 19 19 19 19 19 18 19 19 18 18 18 18 18 18 18 18 17 17 17 17 17 17 17 17 18 18
26 26 26 25 25 25 24 24 24 24 23 23 22 22 21 21 21 20 20 20 20 20 20 20 20 20 21 21 21 20 20 20 20 19 19 19 18 18 18 18 19 20 20
28 28 28 28 28 27 27 26 26 25 25 25 24 24 23 23 22 22 22 22 22 22 22 22 22 22 23 23 23 23 22 22 22 22 21 21 21 21 21 21 22 22 22

GEFSMW_500_meanwind_120.txt.gz
Wind_Speed
4 4 5 7 8 10 11 13 14 15 17 18 19 19 20 20 21 21 20 19 18 17 15 13 13 13 13 13 14 14 15 16 17 19 20 22 23 24 24 26 28 27 28
4 5 5 6 8 9 10 12 14 15 17 18 19 19 20 20 21 21 20 19 18 17 15 13 12 11 11 11 11 11 13 14 16 18 19 21 23 23 24 24 27 27 28
5 5 6 6 7 9 10 12 14 16 17 19 19 20 20 21 21 21 20 19 18 16 15 13 11 10 10 10 10 9 10 12 14 16 18 20 21 22 23 24 25 28 28
6 6 6 7 7 8 10 12 14 16 17 18 19 19 20 21 21 21 20 19 18 17 15 14 12 10 9 9 8 8 9 10 12 14 16 17 19 20 21 22 24 26 28
7 7 7 7 8 9 10 11 13 15 17 18 19 19 20 21 21 21 21 19 18 17 15 14 12 11 10 8 7 7 7 9 10 12 14 16 16 18 19 21 23 25 26
8 7 7 7 8 9 10 11 13 15 16 18 19 19 20 20 21 21 21 20 19 17 16 14 12 11 9 8 7 6 6 7 9 11 13 14 15 17 19 19 21 23 25
8 8 8 8 8 9 10 11 12 14 16 17 18 19 20 20 20 21 21 20 19 17 17 15 13 11 9 8 6 5 4 5 7 9 11 13 14 16 18 19 20 20 23
9 9 8 8 9 9 10 11 12 13 15 16 17 19 20 20 20 21 21 21 19 18 17 15 13 11 9 8 6 5 4 4 5 7 9 10 12 14 15 18 19 20 21
9 9 9 9 9 9 10 11 12 13 14 15 17 18 19 20 20 20 21 21 20 19 18 16 14 11 9 8 6 5 4 3 3 4 6 7 9 10 13 15 17 17 18
10 10 10 10 9 9 10 11 11 12 13 14 16 17 18 19 20 20 20 20 20 19 19 17 15 12 10 9 7 5 4 3 2 3 4 6 7 8 10 12 14 15 17
11 11 11 10 10 10 10 10 11 12 13 14 15 16 17 18 19 20 20 20 20 19 18 17 16 13 11 9 8 6 4 3 3 3 4 5 6 6 8 11 12 13 14
12 12 11 11 10 10 10 10 11 11 12 13 14 15 16 18 18 19 20 20 19 19 18 17 16 15 13 10 9 7 5 3 3 3 4 5 5 6 7 9 11 12 12
12 12 12 12 11 11 11 11 11 11 12 13 14 14 15 17 18 18 19 19 19 19 18 17 16 15 14 12 10 8 6 4 3 3 4 4 5 6 7 8 10 11 12
13 13 13 13 12 12 12 11 11 12 12 13 14 14 15 16 17 18 18 18 18 18 17 17 16 15 14 12 11 9 8 6 5 4 4 5 6 6 7 9 10 11 12
15 15 14 14 14 13 13 12 12 12 13 13 14 14 15 15 16 17 17 17 18 18 17 17 16 15 14 13 12 11 9 7 6 5 5 5 6 7 8 9 9 10 11
16 16 15 15 15 14 14 14 13 13 13 13 14 14 15 15 16 16 16 16 17 17 17 16 16 15 14 13 12 12 11 9 8 7 6 6 6 7 8 9 10 10 11
17 17 17 16 16 16 15 15 15 14 14 14 14 15 15 15 15 15 16 16 16 16 17 16 16 15 14 13 12 12 11 10 9 8 7 7 7 7 7 8 9 10 11
18 18 18 18 18 17 17 16 16 16 15 15 15 15 15 15 16 16 15 16 16 16 16 16 16 15 15 14 13 12 12 11 10 9 9 9 9 8 9 10 10 10 11
19 19 19 19 19 19 18 18 17 17 17 16 16 16 16 16 16 16 16 16 16 16 16 16 16 15 15 14 14 13 13 12 12 11 10 10 10 10 10 10 11 11 12
20 20 20 20 20 20 20 20 19 19 18 18 18 17 17 17 17 16 16 16 16 16 16 16 16 16 15 15 15 14 14 14 13 13 12 12 12 12 11 11 12 12 13
21 22 22 22 22 22 22 22 21 21 20 20 19 19 19 18 18 17 17 17 17 17 17 17 17 16 16 16 16 15 15 14 14 14 14 14 14 13 13 13 13 14 14
23 23 23 24 24 24 24 23 23 22 22 21 21 21 20 19 19 19 18 18 18 18 18 18 17 17 17 17 17 16 16 16 15 16 16 16 15 15 15 14 15 15 16
25 25 25 25 25 25 26 25 25 25 24 23 23 22 22 21 21 20 20 20 19 19 19 19 19 18 18 18 18 18 17 17 17 17 17 17 17 17 16 16 16 16 17
28 27 27 27 27 27 27 27 27 27 26 25 25 24 24 23 23 22 22 22 21 21 21 20 20 20 20 19 19 19 19 19 19 19 19 19 19 18 18 18 18 18 18
30 30 30 29 29 29 29 29 29 28 28 28 27 26 26 25 25 24 24 24 23 23 22 22 22 21 21 21 21 21 21 21 21 21 21 20 20 20 20 20 19 19 19
33 32 32 32 31 31 31 31 31 30 30 30 29 29 28 27 27 26 26 25 25 24 24 24 24 23 23 23 23 23 23 23 23 23 22 22 22 22 22 21 21 21 21

GEFSMW_500_meanwind_126.txt.gz
Wind_Speed
3 3 1 2 3 5 7 8 10 12 13 15 16 17 18 19 19 19 19 19 18 18 17 16 15 13 11 10 10 11 12 13 15 17 18 20 22 24 25 25 26 27 27
4 3 2 2 3 5 6 8 10 12 13 14 16 17 18 18 19 19 19 19 18 17 17 16 14 12 10 9 9 9 10 11 13 15 17 18 20 23 24 24 24 25 26
4 3 2 2 4 5 6 8 9 11 13 14 16 17 18 18 19 19 19 19 18 17 17 16 14 12 10 9 8 8 8 9 11 13 15 17 18 20 23 23 24 24 26
4 3 3 3 4 5 6 7 9 11 12 14 15 16 17 18 19 19 19 19 18 17 16 16 14 13 11 9 8 7 7 8 9 11 13 16 17 19 21 22 23 23 25
5 4 3 4 5 6 6 7 9 10 12 13 15 16 17 18 19 19 19 19 18 17 16 15 14 13 11 9 7 6 6 7 8 10 11 14 16 18 20 21 21 21 23
4 4 4 4 5 6 7 8 9 10 11 13 15 16 16 17 18 19 19 19 19 17 16 15 14 13 11 9 7 5 5 6 7 8 10 12 14 16 18 19 20 21 22
4 4 5 5 6 7 7 8 9 9 11 13 14 15 16 17 18 18 19 19 19 18 16 15 14 13 11 9 6 4 4 4 5 7 8 10 13 15 17 18 19 20 21
4 5 6 6 7 7 7 8 8 9 10 12 13 14 15 16 17 18 18 19 19 18 17 16 15 13 11 9 6 4 3 3 4 5 6 8 11 14 15 17 18 19 21
5 6 7 7 8 8 8 8 8 9 10 11 13 14 14 15 16 17 18 18 18 18 17 16 15 13 11 9 7 5 3 2 2 4 5 6 9 11 13 15 16 18 19
5 6 7 8 8 8 8 8 9 9 10 11 12 13 13 14 15 16 17 18 18 17 17 16 15 14 12 10 8 6 4 2 1 3 4 5 7 9 11 13 15 16 17
7 7 8 8 8 9 8 9 9 10 10 11 11 12 13 13 14 15 16 17 17 17 17 16 15 14 12 10 8 7 5 3 2 1 2 4 5 7 10 12 13 15 16
8 9 9 9 9 9 9 9 10 10 10 11 11 12 12 13 13 14 15 16 16 16 16 16 15 14 12 10 9 7 6 4 3 2 1 2 3 5 8 10 12 13 15
9 10 10 10 10 11 11 11 11 11 11 11 11 11 11 12 13 13 14 14 15 16 16 16 15 14 13 11 9 8 6 4 4 3 2 3 3 4 6 8 10 11 13
11 11 11 11 11 12 12 12 12 12 12 11 11 11 11 12 12 12 13 13 14 15 15 15 15 14 13 12 10 8 7 5 4 4 3 3 4 5 6 7 8 9 11
12 13 13 13 13 13 13 13 13 13 13 12 12 12 12 12 12 12 12 13 13 13 14 14 14 13 13 12 10 9 7 6 5 4 4 3 4 5 6 7 8 9 10
13 14 14 15 15 15 14 14 14 14 14 13 13 13 13 13 12 12 12 12 12 12 13 13 13 13 13 12 11 10 8 7 6 5 5 4 4 5 6 7 8 9 10
14 15 16 16 16 16 16 16 15 15 15 15 15 14 14 14 13 13 13 12 12 12 12 13 12 12 12 12 11 10 9 8 7 6 6 5 5 5 6 7 8 9 10
15 16 16 17 17 17 17 17 17 17 17 16 16 16 15 15 15 14 14 13 13 12 12 12 12 12 12 12 11 11 10 9 8 8 6 6 6 6 6 7 8 10 11
17 17 17 17 18 18 19 19 19 18 18 18 17 17 17 17 16 15 15 14 14 13 13 13 12 12 12 12 11 11 11 10 9 9 8 7 7 7 7 8 9 10 10
19 19 19 19 19 19 20 20 20 20 20 20 19 19 19 19 18 17 16 16 15 15 14 14 13 13 13 12 12 12 11 11 10 10 9 9 8 9 9 9 10 10 11
21 22 22 22 22 22 22 22 22 22 22 22 22 21 21 21 20 19 18 18 17 16 16 15 15 14 14 13 13 13 12 12 11 11 11 11 11 11 11 11 11 12 12
24 25 25 24 24 25 24 24 24 24 25 25 24 24 23 23 22 21 21 20 19 19 18 17 16 16 16 15 15 14 14 14 13 13 12 12 12 13 13 13 14 14 14
27 28 28 27 27 27 27 26 26 26 27 26 26 26 26 25 25 24 23 22 22 21 20 20 19 18 17 17 16 16 15 15 15 15 15 15 14 14 15 15 15 16 16
31 31 31 30 30 29 29 29 29 29 29 29 28 28 28 27 27 26 25 25 24 23 23 22 21 20 20 19 18 18 17 17 17 17 17 17 16 16 17 17 17 18 18
35 35 34 33 33 32 32 32 31 31 31 31 31 31 30 30 29 29 28 27 27 26 25 24 24 23 22 21 21 20 20 19 19 19 19 19 19 19 19 19 19 19 19
38 38 37 37 36 36 35 35 34 34 34 34 34 33 33 32 32 31 30 30 29 28 27 27 26 25 25 24 24 23 22 22 22 21 21 21 21 21 21 21 21 21 21

GEFSMW_500_meanwind_132.txt.gz
Wind_Speed
8 7 6 6 4 4 4 5 6 7 8 10 12 14 15 17 17 18 18 18 18 18 18 17 17 16 15 13 12 12 12 12 13 14 15 17 19 21 23 24 25 25 25
8 7 6 5 4 4 5 5 6 7 8 10 12 14 15 17 18 18 18 18 18 18 18 17 16 16 14 13 12 11 10 11 11 12 13 16 17 19 21 24 25 25 25
8 8 7 6 5 5 5 5 6 7 8 10 11 13 15 17 17 17 18 19 19 18 18 17 16 15 14 13 11 10 9 9 10 10 12 14 16 18 19 22 23 24 25
9 8 7 6 5 5 6 6 6 7 8 10 11 13 15 16 17 17 18 18 18 18 18 17 16 15 13 12 11 9 8 8 9 9 10 12 14 17 17 19 21 23 24
8 8 7 7 6 6 6 6 6 7 8 9 11 13 14 16 17 17 17 18 18 19 18 17 16 15 13 12 11 8 7 6 7 8 9 10 12 14 16 18 20 21 23
8 8 8 7 7 6 6 7 7 7 8 9 11 13 14 15 16 17 17 17 18 19 18 17 16 15 14 12 10 8 6 5 5 6 8 9 11 13 15 17 18 19 21
8 8 7 7 8 7 7 7 7 8 8 9 11 12 14 15 16 16 16 17 18 18 19 17 16 15 14 12 10 8 6 5 5 5 7 8 9 11 13 16 17 18 20
7 7 8 8 8 8 8 8 8 8 9 10 11 12 13 14 15 15 16 16 17 18 18 18 16 15 14 12 10 8 6 5 4 5 5 6 8 10 11 14 15 16 18
7 8 8 8 8 8 8 8 9 9 9 10 11 12 13 14 14 15 15 16 16 17 18 18 17 15 14 12 10 9 7 5 4 4 4 5 6 8 10 12 13 14 17
7 8 8 8 8 9 9 9 9 10 10 11 11 12 12 13 14 14 15 15 16 16 16 17 17 16 14 13 11 9 7 6 4 3 4 4 5 6 8 10 12 13 14
8 9 9 10 10 10 10 10 10 11 11 11 11 12 12 13 13 14 14 15 15 15 15 16 16 15 14 13 11 9 8 7 4 3 3 3 4 6 7 10 11 12 13
9 10 10 11 11 11 11 12 11 12 12 12 12 12 12 13 13 13 14 14 14 14 15 15 15 14 14 13 11 10 8 7 5 3 3 3 3 5 7 8 10 11 13
10 11 11 12 12 13 13 13 13 13 13 13 13 13 13 13 13 14 14 14 13 13 14 14 14 14 14 13 12 10 9 8 6 5 3 3 4 4 6 7 9 11 13
11 11 12 12 13 13 14 14 14 14 14 14 14 14 14 14 14 14 14 14 13 13 13 14 14 14 13 13 12 11 9 8 7 6 5 4 4 4 5 7 8 9 11
11 12 13 13 13 14 14 15 15 15 16 15 15 15 15 15 15 15 14 14 13 13 13 13 13 13 13 12 11 10 9 9 8 7 6 5 4 4 5 6 7 9 11
13 13 14 15 15 15 15 16 16 17 17 17 17 17 16 16 16 16 15 15 14 14 14 14 13 13 13 12 11 11 10 9 8 7 7 6 5 5 5 6 7 8 9
15 15 16 16 17 17 17 17 17 18 18 18 18 18 18 18 18 17 17 16 15 15 15 14 14 13 13 12 12 11 11 10 9 8 8 7 6 7 6 7 8 9 9
17 17 18 18 18 18 19 19 19 19 19 19 19 19 19 19 19 19 18 18 17 16 16 16 15 14 14 13 13 12 11 10 10 9 8 8 7 7 7 8 9 10 10
20 19 20 21 21 21 21 21 20 20 20 20 21 21 21 21 20 20 20 19 19 18 18 17 17 16 15 14 13 13 12 11 10 10 9 9 9 9 9 9 10 11 11
23 23 23 23 24 24 24 24 23 23 23 23 23 23 23 23 23 22 22 22 21 20 20 19 18 18 17 16 15 14 13 13 12 11 11 11 10 10 10 10 11 11 12
26 27 27 27 27 27 27 27 26 26 26 26 26 26 26 25 25 25 24 24 23 23 22 22 21 20 19 18 17 16 15 15 14 13 13 12 12 12 12 12 12 13 13
29 29 30 30 30 30 30 30 30 30 29 29 28 28 28 28 28 28 27 26 26 25 24 24 23 22 22 21 20 19 18 17 16 16 15 14 14 14 14 14 14 14 15
32 32 33 33 33 33 33 33 33 33 33 32 32 31 31 30 30 30 30 29 28 28 27 26 25 25 24 23 22 21 20 20 19 18 18 17 17 16 16 16 16 17 17
36 36 36 36 36 36 37 37 37 37 36 36 36 35 34 33 33 33 33 32 31 30 30 29 28 27 26 26 25 24 23 22 22 21 20 20 19 19 18 18 18 18 18
41 41 41 41 41 41 40 41 41 40 39 39 39 39 38 37 36 35 35 35 34 33 32 32 31 30 29 28 27 26 26 25 25 24 24 23 22 21 21 21 21 21 21
45 45 45 45 45 45 45 44 44 44 43 42 41 41 40 39 38 38 37 36 36 36 35 35 34 32 31 30 30 29 29 28 27 27 26 25 25 24 24 23 23 23 23

GEFSMW_500_meanwind_138.txt.gz
Wind_Speed
8 8 7 7 6 6 6 6 7 7 8 9 10 11 11 12 13 13 15 16 16 17 17 16 16 16 15 13 12 11 10 10 11 12 13 15 16 18 20 22 24 24 26
9 8 8 7 7 7 7 7 7 8 9 9 10 11 12 12 13 14 15 16 16 17 17 17 16 16 15 13 12 10 9 9 10 11 12 14 15 17 19 21 24 24 25
8 8 8 8 7 7 8 7 7 8 9 10 10 11 12 12 13 14 15 16 17 17 17 17 16 16 15 13 12 10 9 8 8 9 10 11 13 16 18 21 23 24 25
8 8 8 8 7 8 8 8 8 9 9 10 10 11 12 12 13 14 15 16 17 17 17 17 17 16 15 13 12 10 8 7 6 7 8 9 11 14 17 19 22 23 24
8 8 8 7 7 8 8 9 9 9 10 10 10 11 11 12 13 14 14 16 17 17 17 17 16 15 14 13 11 9 7 6 5 5 6 8 9 12 15 18 20 22 24
7 7 7 7 8 8 8 9 9 10 10 10 10 11 11 12 13 14 14 15 16 17 17 17 16 15 14 13 11 9 7 5 4 5 6 7 9 11 13 15 17 20 23
6 7 7 7 8 8 8 8 9 10 10 10 10 11 11 12 13 14 14 15 16 17 17 16 15 14 13 12 11 9 7 6 5 5 5 7 8 10 12 14 16 19 21
6 7 7 8 8 8 8 9 9 10 10 10 11 11 11 12 13 13 14 15 15 16 16 16 15 14 13 12 11 10 8 6 5 5 5 6 7 9 10 13 15 17 19
6 6 7 7 8 9 9 9 10 10 10 11 11 11 12 12 13 13 14 14 15 15 15 15 15 14 13 12 11 10 8 7 6 5 5 5 6 7 9 11 13 15 16
6 6 7 8 9 10 10 10 10 11 11 11 11 12 12 12 13 13 14 14 15 15 15 14 14 14 13 12 11 10 9 7 6 6 5 5 6 7 8 10 12 14 15
6 7 7 9 10 11 11 11 12 12 12 12 12 13 13 13 13 14 14 14 14 15 15 14 14 14 14 13 12 11 9 8 7 6 5 5 5 6 7 9 11 13 14
6 7 8 9 10 11 12 12 13 13 13 13 13 14 14 14 14 14 14 14 15 15 14 14 13 13 13 13 12 11 10 9 7 6 6 5 5 6 6 8 10 12 14
7 8 9 10 11 11 12 13 13 13 13 14 14 15 15 15 15 15 15 15 15 15 14 14 14 13 13 13 12 12 11 9 8 7 6 5 4 5 6 7 10 11 13
8 9 10 11 11 12 13 13 13 14 14 14 15 15 16 16 16 16 16 15 15 15 15 14 14 14 14 13 12 12 11 10 8 7 6 5 5 5 6 7 8 10 12
10 11 12 12 13 13 14 14 14 15 15 15 16 16 17 17 17 17 17 16 16 16 16 15 14 14 14 13 13 12 11 10 9 8 7 6 6 7 7 7 9 10 11
12 13 13 14 14 15 15 15 16 16 16 17 17 18 18 18 18 18 18 18 17 17 17 16 15 15 14 14 14 13 12 11 10 9 9 8 8 8 8 8 9 10 11
14 14 15 15 16 17 17 17 17 18 18 19 19 19 19 19 19 19 19 19 19 18 18 18 17 16 16 15 14 14 13 12 11 11 10 9 8 9 9 10 10 10 11
16 17 17 18 19 19 20 20 20 20 20 21 21 21 21 21 21 21 21 21 20 20 19 19 19 18 17 17 16 15 15 14 13 12 12 11 10 10 10 11 11 12 12
19 19 20 21 21 22 22 23 23 23 23 23 23 23 23 23 23 23 23 23 23 22 22 21 21 20 20 19 18 18 17 16 15 15 14 13 12 12 11 12 12 13 13
22 22 23 24 24 25 25 26 26 26 26 26 26 26 26 26 26 25 25 26 25 25 24 24 23 23 23 22 21 20 19 19 18 17 16 15 15 14 13 14 14 14 15
24 25 26 27 27 28 28 28 29 29 29 29 29 29 29 29 29 29 28 28 28 28 27 27 26 26 25 25 24 23 22 21 21 20 19 18 17 17 16 16 16 16 16
27 28 29 30 30 31 31 32 32 32 33 33 33 33 33 33 33 32 32 31 31 31 31 30 30 29 28 27 26 26 25 24 23 23 21 20 20 20 19 18 18 19 19
31 32 33 34 34 35 35 36 36 36 36 36 36 36 36 36 36 36 35 35 34 34 33 33 32 31 30 29 29 29 28 27 26 25 24 24 23 23 22 22 21 22 22
35 36 37 38 39 39 39 39 39 39 39 40 40 40 40 39 39 39 38 38 37 36 36 35 34 33 32 32 32 32 31 30 30 29 28 27 26 26 25 25 25 24 24
39 40 41 42 43 43 43 43 43 43 43 43 43 43 43 43 42 41 41 40 39 39 38 38 38 37 36 35 35 34 34 34 33 32 31 30 30 29 29 28 27 27 27
43 44 45 46 46 46 46 46 46 46 46 46 46 46 46 45 45 44 44 43 42 42 42 41 41 40 39 38 37 37 37 36 36 35 34 33 33 32 31 30 30 29 29

GEFSMW_500_meanwind_144.txt.gz
Wind_Speed
7 6 5 5 4 4 5 5 6 7 8 8 10 11 12 13 14 14 15 17 17 18 18 18 17 17 17 16 14 13 12 11 10 9 10 11 11 12 14 16 17 18 18
6 5 5 5 5 5 5 6 7 7 8 9 10 11 12 13 13 14 15 16 17 18 18 18 17 17 17 16 15 14 12 10 9 8 9 9 10 11 12 14 16 17 18
5 5 4 4 4 5 6 7 7 8 8 9 10 11 12 13 13 14 15 16 17 18 18 18 17 17 17 16 15 14 12 10 9 8 7 8 9 10 11 12 15 17 18
5 5 4 4 4 5 6 6 7 8 8 9 9 11 12 12 13 14 15 16 17 18 17 17 17 17 17 17 15 13 12 10 9 8 7 7 7 9 10 11 14 16 17
5 5 4 4 4 5 5 6 7 7 8 9 9 11 12 13 13 14 15 15 17 17 17 17 17 16 16 16 15 13 12 10 9 8 7 7 7 7 9 10 12 14 15
5 5 4 3 3 4 5 6 7 7 8 9 9 11 12 13 13 14 15 15 16 17 17 17 16 16 16 16 15 13 12 10 9 8 7 7 6 7 8 9 11 12 14
4 4 3 3 3 4 5 6 7 8 8 9 10 11 12 13 13 14 15 15 16 16 17 17 16 16 15 15 14 13 12 10 9 9 8 7 7 7 7 8 10 11 13
3 3 3 3 4 5 6 7 8 9 9 10 10 11 12 13 13 14 15 15 16 16 16 16 16 15 15 14 14 14 13 11 10 9 8 8 7 7 7 8 9 10 13
3 3 3 4 5 6 7 8 9 9 10 10 11 12 12 13 14 14 15 15 16 16 16 16 15 15 15 14 14 14 13 12 11 10 9 8 8 8 8 8 9 10 12
3 3 4 5 5 6 7 8 9 10 10 11 12 12 13 14 14 14 15 15 15 16 16 16 15 15 15 14 14 14 13 13 12 11 10 9 9 8 8 8 8 9 10
4 4 5 6 6 7 8 9 10 11 11 12 12 13 14 14 15 15 15 16 16 15 16 16 15 15 15 15 14 14 14 13 12 11 10 10 9 9 8 8 8 9 10
5 5 6 6 7 8 8 9 10 11 12 12 13 13 14 14 15 15 15 16 16 16 15 15 15 15 15 15 15 14 14 13 13 12 11 10 9 9 9 8 8 9 10
5 6 6 7 8 8 9 10 11 11 12 13 13 14 15 15 15 15 16 16 16 16 16 15 15 15 15 15 15 14 14 13 13 13 12 11 10 9 9 8 8 9 10
6 7 8 8 9 10 10 11 12 13 14 14 15 15 15 16 16 16 16 16 16 17 16 16 16 16 16 16 15 15 14 14 13 13 13 12 11 11 10 9 9 9 10
9 9 10 10 11 12 13 13 14 14 15 15 16 16 17 17 17 17 17 17 17 17 17 17 17 17 17 16 16 16 15 15 14 14 13 12 12 12 11 11 10 10 10
11 11 12 13 13 14 15 16 16 16 17 17 17 17 18 19 19 19 19 19 19 19 19 19 19 18 18 18 18 17 17 16 16 15 14 13 13 13 12 12 11 11 11
13 14 14 15 15 16 17 17 17 18 19 20 20 21 20 21 21 21 21 21 21 21 21 20 20 20 20 20 20 19 18 18 17 17 16 15 15 14 14 14 13 12 12
15 16 16 17 18 19 19 20 20 20 21 22 23 23 23 23 23 23 24 24 23 23 23 23 22 22 22 22 22 21 21 20 19 19 18 17 17 16 16 15 14 14 14
17 18 19 20 20 21 22 22 23 23 24 24 25 25 25 25 26 26 26 26 26 26 25 25 25 25 24 24 24 24 24 23 22 21 21 20 19 19 18 17 16 16 16
19 20 22 22 23 24 24 25 25 26 27 28 28 27 28 28 28 29 29 29 29 29 29 28 27 27 27 27 26 26 25 25 24 24 23 22 21 21 21 20 19 19 18
22 23 24 25 26 27 27 28 28 29 30 31 31 31 31 32 32 32 32 32 32 32 32 32 31 30 30 30 29 28 27 27 26 26 25 24 23 23 23 22 22 21 21
26 26 27 28 29 30 30 31 32 33 34 34 35 35 35 35 35 35 35 34 35 35 34 34 34 34 33 32 31 31 30 30 29 28 28 27 26 26 26 26 25 25 24
29 30 30 31 32 33 34 35 35 36 37 38 38 38 38 38 38 38 38 37 37 37 37 37 37 36 35 34 34 34 34 33 33 32 31 30 29 28 28 29 28 28 27
32 33 34 35 36 37 38 39 39 40 41 41 41 41 41 41 41 41 41 41 41 41 40 40 39 39 38 38 38 37 37 36 35 35 34 33 32 31 31 31 31 31 30
35 36 38 39 40 41 41 43 43 44 44 44 44 44 44 44 44 44 44 44 44 44 44 43 43 42 42 41 41 40 39 38 38 38 37 37 36 35 34 34 33 33 33
38 39 41 42 43 44 45 46 47 48 47 47 47 47 47 46 47 47 47 47 47 47 47 46 46 45 44 43 43 42 42 41 41 40 39 39 38 38 37 37 36 36 35

GEFSMW_500_meanwind_150.txt.gz
Wind_Speed
10 9 9 7 5 4 3 2 1 2 2 3 4 5 7 8 9 10 11 12 13 14 14 15 15 14 14 14 13 12 11 9 8 8 8 8 9 10 12 12 12 14 14
9 9 9 8 6 5 3 2 2 2 3 4 5 6 7 8 9 10 11 12 13 14 14 14 15 15 15 14 13 12 10 9 7 7 6 7 8 9 10 12 12 13 14
9 9 8 7 6 5 3 3 2 2 3 4 5 6 7 8 9 10 11 12 13 14 14 14 15 14 14 14 13 12 10 8 7 6 5 6 7 8 9 11 12 13 14
8 8 7 6 5 4 3 2 2 3 4 4 5 6 7 8 9 10 11 12 12 13 14 15 15 14 14 13 13 12 10 9 7 6 5 5 5 6 8 9 11 13 14
8 7 6 5 5 4 3 2 2 3 4 4 5 6 7 8 9 10 11 11 12 13 14 14 14 14 14 13 12 12 11 9 7 6 5 4 4 5 6 8 10 12 13
8 7 6 5 5 4 3 3 3 4 4 5 6 6 7 8 9 10 10 11 12 13 13 13 14 14 14 13 12 12 11 9 8 7 6 4 4 4 5 7 9 10 12
8 8 6 5 5 4 4 3 4 4 5 6 6 7 7 8 9 10 10 11 12 12 13 13 13 13 13 13 12 12 11 10 8 8 7 5 4 4 5 6 8 10 11
8 7 6 6 5 4 4 4 4 5 5 6 7 7 8 9 9 10 10 11 12 12 12 12 12 13 12 12 12 12 11 10 9 8 8 7 5 5 5 6 7 9 10
6 6 6 5 5 4 4 4 5 5 6 6 7 7 8 9 9 10 10 11 12 12 12 12 12 12 12 12 12 12 12 11 10 9 8 8 7 6 5 5 6 8 9
6 5 5 5 5 5 5 5 5 5 6 6 7 8 8 9 10 10 11 11 12 12 12 12 12 12 12 12 12 12 12 11 10 10 9 8 7 6 5 6 7 8 9
6 5 5 5 5 5 5 5 6 6 6 7 8 9 10 10 10 11 11 12 12 12 13 12 12 12 12 13 13 13 12 12 11 10 10 9 7 6 6 6 7 8 9
5 5 5 6 6 5 5 6 6 7 7 8 9 9 10 10 10 11 12 12 13 13 13 13 13 13 13 13 13 13 13 13 12 11 11 10 8 8 8 8 8 9 10
6 6 6 6 6 6 7 7 7 7 8 8 9 10 10 11 11 12 12 13 13 14 14 14 14 14 14 14 14 14 14 14 13 12 11 11 10 10 10 10 10 10 11
6 7 8 7 8 8 8 8 8 8 9 9 10 11 12 12 13 13 14 14 15 15 15 15 15 16 15 16 16 16 16 15 15 14 13 12 12 12 12 12 11 12 12
8 9 9 9 9 10 10 10 10 11 11 12 13 13 14 14 15 15 15 16 16 16 17 17 17 17 17 17 17 17 17 17 16 16 15 14 14 14 14 14 13 13 13
9 9 10 10 11 12 12 12 13 13 14 15 15 15 15 16 16 17 17 17 17 18 19 19 19 19 20 20 19 19 19 18 17 17 17 17 16 16 16 16 16 15 15
10 11 12 12 13 14 14 15 15 16 17 17 18 18 18 18 18 19 20 20 20 20 20 21 22 22 22 22 22 22 21 20 20 19 19 19 19 18 18 18 17 17 17
12 13 14 14 15 16 16 17 18 19 19 20 20 21 21 21 21 22 22 23 23 24 24 24 25 25 25 25 25 25 24 23 23 22 22 22 21 21 20 20 19 19 19
14 15 16 17 17 18 19 20 20 21 22 22 23 23 24 24 24 25 26 26 26 27 28 28 28 28 27 27 27 27 26 26 25 25 24 24 24 23 23 22 21 21 21
17 17 18 19 20 21 21 22 23 23 24 25 25 26 27 27 28 28 29 29 29 30 30 31 31 30 30 30 30 29 29 29 28 28 28 27 26 26 26 26 25 24 24
19 20 21 22 23 23 24 25 26 26 27 28 29 29 30 31 31 32 32 32 32 33 33 33 33 32 32 32 32 32 32 32 32 31 31 31 30 30 30 29 29 28 28
22 23 24 25 26 26 27 28 29 30 30 31 32 33 34 34 34 35 35 35 36 35 35 35 35 35 35 35 35 35 35 35 35 35 34 35 34 34 33 33 32 32 32
26 26 27 28 28 29 30 31 32 33 33 34 35 36 37 37 38 38 38 38 39 39 38 38 38 38 38 38 39 39 39 39 38 38 38 38 38 37 37 36 35 34 34
28 29 30 30 31 32 33 34 35 36 36 38 39 39 40 40 41 41 41 42 42 42 42 42 41 41 42 42 43 43 43 43 42 42 41 41 41 41 40 39 38 37 37
31 32 33 33 34 35 36 37 38 39 40 41 42 43 43 43 43 44 45 45 45 45 45 45 45 45 46 46 47 47 47 47 46 45 45 44 44 43 42 41 41 41 40
33 35 36 36 37 38 39 40 41 42 43 44 45 45 45 45 46 46 47 47 47 47 48 48 49 49 50 50 50 50 50 49 49 48 47 47 47 46 46 45 45 44 43

GEFSMW_500_meanwind_156.txt.gz
Wind_Speed
10 11 10 8 7 6 4 4 4 3 2 3 4 5 6 7 8 9 10 11 11 12 13 14 14 14 13 13 12 11 11 9 8 7 7 7 7 8 9 9 10 10 11
11 11 10 8 7 6 5 4 3 3 3 3 4 5 6 7 8 9 10 11 11 12 13 14 14 14 13 13 12 11 11 10 8 7 6 6 6 7 8 9 9 10 11
11 11 10 9 7 6 5 4 4 4 4 4 4 5 6 7 8 9 10 11 11 12 13 14 14 14 13 13 13 12 11 10 8 7 5 5 5 6 7 8 9 9 11
12 11 11 9 8 6 5 4 4 3 3 4 4 5 6 8 9 9 10 11 12 12 13 14 14 14 13 13 13 12 11 10 9 7 6 4 4 4 6 7 8 9 10
12 11 10 9 7 6 5 5 4 4 4 4 5 6 7 8 9 10 10 11 12 12 13 14 14 13 13 13 12 12 12 11 9 8 6 5 3 3 5 6 7 9 10
11 10 9 8 7 6 6 5 4 4 5 5 5 6 7 8 9 10 10 11 12 12 13 13 13 13 13 12 12 12 12 11 10 8 7 6 4 4 4 5 7 8 9
11 9 8 7 6 6 6 5 4 4 5 5 6 6 7 8 9 9 10 10 11 12 12 12 13 13 13 12 12 12 12 11 10 9 8 6 5 4 4 5 6 7 8
10 9 8 7 6 6 6 5 5 4 5 5 6 6 7 8 9 9 10 10 10 11 12 12 12 13 13 13 12 12 12 12 11 10 8 7 6 5 5 6 7 8 8
10 9 8 7 7 6 6 5 5 5 5 6 6 7 8 8 9 10 10 10 10 11 12 12 12 12 13 13 13 13 13 12 11 10 10 9 8 7 7 7 6 7 8
10 9 8 7 7 6 6 5 5 6 6 6 6 7 8 9 9 10 10 10 11 11 12 12 12 12 13 13 13 13 13 12 11 11 10 10 9 9 8 9 9 9 9
9 8 8 7 6 6 6 6 6 6 6 7 7 8 8 9 10 10 10 10 11 11 12 12 12 13 13 13 13 13 14 13 12 12 11 11 10 10 10 10 10 10 10
8 8 8 7 7 7 7 7 7 7 7 7 8 9 9 10 10 11 11 11 11 12 13 13 13 13 14 14 14 14 14 13 13 13 12 12 12 12 12 12 12 12 12
8 7 7 7 7 7 7 7 7 8 8 8 9 10 10 11 11 12 13 13 13 14 14 14 15 15 15 15 16 15 15 15 14 14 14 14 14 14 14 14 14 14 14
8 8 7 7 7 7 7 8 9 9 9 10 11 11 12 13 13 14 14 15 15 15 15 16 16 16 17 17 17 17 17 17 17 17 17 17 16 16 16 16 16 17 17
8 8 8 8 8 8 9 9 10 11 11 12 12 13 14 14 15 15 16 16 17 17 18 18 18 18 19 19 19 19 19 19 19 19 19 19 19 19 18 18 18 18 19
9 9 9 9 9 10 10 11 12 13 13 14 14 15 16 16 17 18 18 19 19 20 20 20 21 21 21 22 22 22 21 21 22 22 21 21 21 21 21 20 20 20 21
11 11 11 11 12 12 12 13 14 15 16 16 17 18 18 19 20 20 21 21 22 22 23 23 23 23 24 24 24 25 25 25 24 24 24 24 24 24 24 23 23 23 23
12 12 13 13 14 14 15 16 17 18 18 19 20 20 21 21 22 23 24 24 25 25 25 26 26 26 26 27 27 27 27 26 26 26 26 26 26 26 26 25 25 25 25
13 14 14 15 16 16 17 18 19 20 21 21 22 22 23 23 24 25 26 27 27 28 28 28 29 29 29 29 29 29 29 28 28 28 28 28 28 28 28 28 28 27 28
15 15 16 16 17 18 19 20 22 22 23 24 24 25 26 26 27 28 29 30 30 31 31 31 31 32 32 31 31 31 31 31 31 31 31 31 31 31 31 31 31 31 31
17 18 18 19 19 20 21 23 24 24 25 26 27 28 29 30 31 31 32 32 33 33 33 33 34 34 34 34 34 34 34 34 34 34 34 34 34 34 35 35 34 34 34
19 20 20 21 22 23 24 25 26 26 27 28 30 31 32 33 33 34 34 35 35 35 35 36 36 37 37 37 37 37 37 37 37 37 37 38 38 38 38 38 38 38 38
22 22 23 24 25 26 27 28 28 29 30 31 32 33 34 34 35 36 36 37 37 38 38 38 39 39 40 40 41 41 41 40 40 40 41 41 41 41 41 42 42 42 41
25 26 26 27 28 29 30 30 31 32 32 33 34 35 35 36 37 38 38 39 40 40 41 41 42 42 43 43 44 44 44 44 44 44 44 44 45 45 45 45 45 45 45
28 29 29 30 31 32 33 33 33 34 35 36 37 37 38 39 39 40 41 42 43 44 44 44 45 46 46 46 47 47 47 47 48 48 48 48 48 48 49 49 49 48 48
30 31 31 32 33 34 34 35 35 36 37 38 39 39 40 41 42 43 44 45 45 46 46 47 48 48 49 49 50 50 50 51 51 51 51 51 51 52 51 51 51 51 51

GEFSMW_500_meanwind_162.txt.gz
Wind_Speed
10 10 9 9 8 7 5 5 5 4 3 2 2 2 3 4 5 7 8 8 9 10 10 10 11 11 11 10 10 9 8 7 6 6 6 6 6 8 8 9 11 12 12
11 10 10 9 8 6 5 5 4 4 3 3 2 2 3 4 5 6 7 8 9 10 10 10 11 11 10 10 10 9 8 7 6 5 5 5 5 6 7 8 9 11 12
11 10 10 9 8 7 5 5 4 4 4 3 2 2 3 4 5 6 7 8 9 9 10 10 10 11 11 10 10 10 9 8 7 6 5 4 4 5 6 7 8 9 11
11 10 9 9 8 7 6 5 4 4 4 3 2 2 3 4 5 6 7 8 8 9 10 10 10 10 11 10 10 10 9 8 7 6 5 4 3 3 5 6 7 9 10
10 9 9 9 8 7 6 5 5 4 4 3 3 3 3 4 5 6 7 8 8 9 9 10 10 11 11 10 10 10 9 8 7 6 5 4 3 3 4 5 7 8 10
10 9 9 8 7 7 6 5 5 4 4 4 3 3 4 5 6 6 7 7 8 8 9 9 10 10 11 11 10 10 9 8 8 7 6 4 4 3 4 5 6 8 9
10 9 9 7 7 7 6 5 5 5 4 4 4 4 5 5 6 6 7 7 7 8 8 9 9 10 10 11 10 10 9 9 8 7 6 5 5 4 4 5 6 7 9
10 9 8 7 7 6 6 6 5 5 5 5 5 5 5 5 5 5 6 6 7 8 8 9 9 9 10 10 10 10 9 9 8 8 7 6 6 6 6 6 7 7 8
10 9 8 8 7 7 6 6 6 6 5 5 5 5 5 5 5 6 6 7 7 7 8 9 9 9 10 10 10 10 9 9 9 8 8 7 7 7 7 7 8 8 9
10 9 8 8 8 7 7 6 6 6 6 6 6 6 5 5 6 6 7 7 8 8 9 10 10 10 10 10 10 10 9 9 9 9 9 8 8 8 8 8 8 9 9
9 9 9 9 8 8 7 7 7 6 7 7 6 6 6 6 6 7 7 8 9 10 10 11 11 11 11 11 11 11 11 10 10 10 10 10 10 10 9 9 10 10 10
9 9 9 9 9 9 8 8 7 7 7 7 7 7 7 7 7 8 9 9 10 11 11 12 12 12 12 12 12 12 12 12 12 12 11 11 11 12 12 12 12 12 12
10 10 10 10 9 9 9 9 8 8 8 8 8 8 8 8 9 10 11 11 12 13 13 13 13 13 13 14 14 14 14 14 14 14 14 14 14 14 14 14 14 14 15
10 10 10 10 10 10 10 9 9 9 9 9 10 10 10 10 11 12 12 13 14 14 14 15 15 15 15 15 15 16 16 16 16 16 16 16 17 17 17 17 17 17 17
11 11 11 10 10 10 11 10 10 11 11 11 12 12 12 12 13 13 14 15 15 15 16 16 17 17 17 17 17 17 18 18 19 19 19 19 19 19 19 19 19 20 20
11 11 11 11 11 11 11 11 12 12 13 13 13 14 14 15 15 15 16 17 17 18 18 18 19 19 20 20 20 21 21 21 21 22 22 22 22 22 21 21 21 22 22
11 11 11 12 12 12 12 12 13 13 14 15 16 16 17 17 17 18 18 19 19 20 20 21 21 22 22 23 23 24 24 24 24 24 24 24 24 24 24 24 24 24 24
12 12 12 13 13 13 14 14 14 15 16 17 18 19 19 19 20 20 21 21 22 22 23 24 24 24 24 25 25 26 26 26 26 26 26 26 27 27 27 27 26 27 27
13 13 13 14 14 15 15 16 16 17 18 18 19 20 20 21 22 22 23 24 24 25 25 26 26 26 27 27 27 28 28 29 29 29 29 29 29 30 30 30 30 30 30
14 14 14 15 15 16 16 17 18 19 20 20 21 22 23 23 24 25 25 26 27 27 28 28 28 28 29 30 30 31 31 31 32 32 32 33 33 33 33 34 34 34 34
15 15 16 16 17 18 18 19 20 20 21 22 23 24 25 25 26 27 28 29 29 30 30 31 31 32 32 33 33 33 34 34 35 35 36 36 36 37 37 38 38 38 38
17 17 18 18 19 20 20 21 22 22 23 24 25 26 27 27 28 29 30 31 31 32 33 33 34 34 35 35 36 36 37 38 38 39 39 39 40 40 40 41 41 41 41
18 19 20 21 21 22 22 23 24 25 25 26 27 27 28 29 30 31 32 33 34 35 35 36 36 37 38 38 38 39 40 40 41 41 42 42 43 43 43 43 43 44 44
20 21 22 23 23 24 25 26 26 27 28 29 29 30 30 31 32 33 34 35 36 37 38 39 40 40 40 41 41 41 42 43 43 43 44 44 45 45 45 46 46 46 47
22 23 24 25 26 26 27 28 29 29 30 31 31 32 32 33 34 36 37 38 38 39 40 41 42 42 42 42 43 44 44 45 45 45 46 47 47 47 47 47 47 48 48
24 25 26 27 27 28 29 30 31 31 32 33 33 34 34 35 37 38 39 40 41 42 43 43 43 43 44 44 45 46 46 47 48 48 48 48 49 49 49 49 49 50 50

GEFSMW_500_meanwind_168.txt.gz
Wind_Speed
8 7 6 6 5 4 3 3 3 3 3 3 3 3 3 4 5 6 7 8 9 10 10 11 11 11 12 11 11 10 9 8 7 6 5 5 4 5 5 6 6 7 8
8 8 7 6 5 5 5 5 4 3 3 3 3 3 3 4 4 6 7 8 8 9 10 10 11 11 11 12 11 10 9 8 7 6 6 5 4 4 5 5 6 7 7
8 8 7 7 6 5 5 4 4 4 4 3 3 3 3 4 5 6 7 7 8 9 10 10 10 11 11 12 12 11 10 9 7 6 6 5 5 4 4 5 6 6 7
9 9 8 7 6 6 5 5 5 4 4 3 3 3 3 4 5 5 6 7 8 8 9 10 10 11 11 11 11 11 10 9 8 7 6 6 5 5 4 4 5 6 7
9 9 9 8 7 6 6 6 5 4 4 4 4 4 4 4 5 5 6 7 7 8 9 9 10 11 11 11 11 11 10 9 9 8 7 6 6 5 5 5 5 6 7
9 9 9 8 7 7 7 7 6 5 4 5 4 5 4 4 5 5 6 6 7 8 8 9 10 11 11 11 11 11 10 9 9 8 8 7 6 6 6 6 6 7 7
9 9 8 8 8 7 7 6 5 5 4 5 5 5 4 5 5 6 6 6 7 8 8 9 10 10 11 11 11 11 10 10 9 9 8 8 7 7 7 7 7 7 8
10 10 9 8 8 8 8 7 6 5 5 5 5 5 5 6 6 6 6 6 7 8 8 9 9 10 10 11 11 11 11 10 10 9 9 8 8 8 8 8 8 8 8
10 9 9 9 8 8 8 7 7 6 6 5 6 5 6 6 6 6 6 6 7 8 8 9 10 10 11 11 11 11 11 10 10 10 10 10 9 9 9 9 9 9 9
10 10 10 9 8 8 8 8 7 7 7 6 7 6 7 6 7 6 6 6 7 9 9 10 10 11 11 12 12 11 11 11 11 11 11 11 11 11 11 11 11 11 11
10 10 9 9 9 8 8 8 8 8 8 8 8 8 8 8 7 7 7 8 8 10 10 11 12 12 12 12 13 13 13 12 12 12 12 12 12 12 13 13 13 13 13
10 10 9 10 9 9 9 9 9 9 9 9 9 9 9 9 9 9 9 9 10 11 11 12 13 13 13 13 14 14 14 14 14 14 14 14 14 14 14 14 14 14 15
10 10 9 9 10 10 10 10 9 9 9 9 10 10 10 10 10 11 11 12 12 12 13 13 14 14 14 15 15 16 16 16 16 16 16 16 16 16 16 16 17 17 17
11 11 11 11 10 10 10 10 10 10 10 10 10 11 11 11 12 12 13 14 14 14 14 15 15 16 16 16 17 18 18 18 18 18 18 18 18 19 18 19 19 20 20
12 12 12 11 11 10 10 10 10 10 11 11 11 11 12 13 14 14 15 15 16 15 16 16 17 18 18 18 19 19 20 20 20 20 20 20 21 21 21 22 22 23 23
13 13 12 12 12 11 11 11 11 11 11 12 12 13 14 15 15 16 16 17 17 17 18 19 19 20 21 21 21 22 22 22 22 22 23 23 23 24 24 24 24 25 25
14 13 13 13 12 12 12 11 12 12 12 12 13 14 16 16 16 16 17 17 18 19 20 21 21 22 23 23 23 23 23 24 24 25 25 26 26 26 26 26 26 26 27
13 14 14 14 14 13 12 12 13 13 14 14 15 16 17 17 18 18 19 19 21 22 22 23 23 24 24 24 24 24 25 26 26 27 27 27 27 27 28 28 29 29 29
14 14 14 14 14 13 13 14 14 14 15 16 17 18 19 19 20 20 21 22 23 24 24 25 25 25 26 26 27 27 27 28 29 29 30 30 30 30 31 31 31 31 32
15 15 15 15 14 15 15 15 16 16 16 17 18 20 21 21 22 22 23 24 25 26 26 27 27 27 28 29 29 30 31 32 32 32 32 32 33 33 34 34 34 34 35
15 15 15 16 16 16 16 17 17 17 18 19 20 21 21 22 23 23 24 25 26 27 28 29 29 30 31 32 33 33 34 34 34 35 35 35 35 35 36 36 37 37 37
17 17 17 18 18 17 18 18 19 19 20 20 21 22 22 23 24 25 26 27 28 29 29 31 32 33 34 34 35 36 36 36 36 36 37 37 37 37 38 38 39 40 40
18 18 19 19 19 19 20 20 21 21 22 22 23 23 24 25 26 27 28 29 30 31 32 33 34 35 36 37 37 38 38 38 38 38 39 39 40 41 41 42 42 42 43
18 18 19 20 20 20 21 21 22 23 24 24 25 26 27 28 29 30 31 32 33 34 35 35 36 37 38 39 39 39 39 40 40 41 42 42 43 44 44 44 44 44 45
19 19 20 20 20 21 22 23 24 25 25 26 27 28 29 30 32 32 33 34 35 36 37 38 39 39 40 40 41 41 41 42 43 44 44 45 46 46 46 47 47 48 48
19 20 20 20 21 22 23 24 25 26 27 29 30 31 32 33 34 35 36 37 38 39 39 40 41 42 42 43 43 44 44 45 46 47 47 48 48 48 49 50 50 51 52

GEFSMW_500_meanwind_174.txt.gz
Wind_Speed
9 9 8 8 7 7 6 6 5 5 4 3 3 2 1 1 2 2 3 4 4 5 6 6 7 8 9 9 9 8 8 7 6 5 4 3 3 3 4 5 5 5 6
10 9 8 8 7 6 6 6 5 4 4 3 3 2 1 1 2 3 3 3 4 5 6 6 7 8 9 9 9 9 8 7 7 6 5 4 3 2 3 3 4 5 6
10 10 9 8 7 7 6 6 5 5 4 4 3 3 2 2 2 2 3 3 4 5 6 6 7 8 8 9 9 9 8 7 6 6 5 4 3 3 2 3 4 5 6
10 10 9 8 7 7 7 6 5 5 5 4 3 3 2 2 2 3 3 3 4 5 5 6 7 7 8 9 9 8 8 8 6 6 5 4 4 3 2 2 3 5 6
11 10 9 9 7 7 7 6 6 5 5 4 4 3 3 3 3 3 3 3 4 4 5 6 7 7 8 8 8 8 8 8 7 6 6 5 4 4 3 3 4 5 6
11 11 10 9 7 7 7 7 6 6 6 5 5 4 4 3 3 3 3 4 4 5 5 6 6 7 8 8 8 8 8 8 7 7 6 6 5 5 4 5 5 6 6
10 11 10 9 8 7 7 7 6 6 6 6 5 5 4 4 4 4 4 4 4 5 5 6 6 7 8 8 8 8 8 8 7 7 7 6 6 6 6 6 7 7 7
11 11 10 9 8 7 7 7 7 7 7 7 6 5 5 4 4 4 4 4 5 5 5 6 6 7 8 9 9 9 9 8 8 8 7 7 7 7 7 7 8 8 8
11 11 10 9 9 8 8 7 7 7 7 7 7 6 5 5 5 5 5 5 5 5 6 6 7 8 8 9 10 10 10 10 9 9 9 9 9 9 9 9 9 9 10
11 11 10 10 9 8 8 7 8 8 7 7 7 6 6 5 5 6 6 5 5 6 6 7 8 8 9 9 10 10 11 11 11 11 10 10 10 10 11 11 11 11 11
11 11 11 10 10 9 8 9 9 8 8 8 8 7 7 7 7 7 6 6 6 7 7 8 9 9 9 10 11 12 12 12 13 13 13 13 13 13 13 13 13 13 13
12 12 12 11 9 9 9 9 9 10 10 9 8 8 8 8 8 7 7 7 8 8 9 9 10 10 11 12 12 13 13 14 14 15 15 15 15 15 15 15 15 15 16
11 11 12 11 10 9 9 9 10 10 11 10 9 9 9 8 8 8 8 9 9 9 10 11 11 12 13 13 14 14 15 16 17 17 17 17 17 17 17 17 17 17 18
10 11 12 11 11 10 10 10 10 10 10 10 10 10 9 9 9 9 9 10 10 11 11 13 13 14 14 15 15 16 17 18 18 18 18 19 19 19 19 19 19 20 21
11 12 12 11 11 11 10 10 10 10 10 10 10 10 10 10 11 11 11 11 12 12 13 14 15 16 16 17 17 18 19 19 19 20 20 20 21 21 21 22 22 23 23
11 11 12 12 12 12 12 11 11 10 10 10 11 12 12 12 12 12 12 13 14 14 15 16 17 18 18 18 19 20 20 21 21 21 22 22 23 23 24 24 24 25 25
11 12 12 12 12 12 12 12 11 11 11 11 11 11 12 13 13 13 14 14 15 16 17 18 19 20 20 20 21 21 22 23 23 23 24 24 25 26 26 27 27 27 28
11 12 12 12 11 11 12 12 12 12 11 11 12 12 13 13 14 14 15 16 17 18 19 20 20 21 21 21 22 23 24 25 25 26 26 27 27 28 28 29 30 30 30
12 12 12 12 11 11 11 12 12 12 12 12 13 13 14 14 15 15 16 17 18 19 21 21 22 23 22 23 24 25 25 26 27 28 29 29 30 30 31 32 32 32 33
12 12 13 13 13 12 12 12 13 12 13 13 14 14 14 15 16 16 17 18 19 20 21 22 23 23 24 25 26 26 27 28 29 30 31 32 33 33 33 34 34 34 35
13 13 14 14 14 14 14 13 13 13 14 15 15 15 15 16 16 17 18 20 21 22 22 23 24 24 26 27 28 29 30 31 32 33 34 34 35 35 36 36 36 36 37
14 14 14 14 15 15 14 14 14 15 15 16 16 17 17 18 18 19 20 21 22 23 24 25 26 27 28 30 31 32 33 34 35 36 36 37 37 38 38 39 39 40 40
15 15 15 15 16 15 15 16 16 16 17 17 18 19 19 20 21 21 22 23 24 25 26 28 29 30 32 33 34 34 36 37 38 38 39 40 40 41 41 42 42 43 43
15 16 16 16 16 16 17 16 17 17 18 19 20 20 21 21 22 23 25 26 27 29 30 31 32 34 34 35 36 37 39 40 41 41 42 42 43 44 44 45 45 45 45
16 16 16 16 16 16 17 17 17 18 19 19 20 21 22 23 25 26 28 29 31 32 33 34 36 36 37 38 39 40 41 42 43 43 44 45 45 46 46 46 46 47 47
17 17 16 16 17 17 18 18 19 19 20 21 23 24 25 26 28 30 31 32 33 34 36 37 38 38 39 40 41 42 43 43 44 45 45 46 46 47 47 48 48 49 49

GEFSMW_500_meanwind_180.txt.gz
Wind_Speed
11 10 10 9 8 8 7 7 6 6 6 5 5 4 3 2 2 1 2 3 3 3 4 5 6 7 7 8 8 8 7 7 7 6 6 5 4 4 3 4 4 5 5
11 10 10 10 9 8 7 6 6 6 6 6 5 5 4 3 2 2 2 2 3 3 4 5 5 6 7 7 7 8 7 7 7 7 6 5 5 4 4 3 4 5 5
12 11 11 10 9 8 7 6 6 5 5 5 5 5 4 3 3 2 2 2 3 3 4 4 5 6 7 7 7 7 7 7 7 6 6 6 5 5 5 4 4 5 5
12 11 11 10 9 8 7 7 6 5 5 5 5 5 4 4 3 2 2 3 3 3 3 4 5 6 6 7 7 7 7 7 7 7 6 6 6 5 5 5 5 5 6
12 11 11 10 9 8 8 7 6 6 6 5 5 5 4 4 3 3 3 3 3 4 4 5 5 6 6 7 7 6 7 7 7 7 7 6 6 6 6 6 7 7 7
12 11 11 10 10 9 8 7 7 7 6 6 5 5 5 5 4 4 3 3 4 4 4 5 6 6 6 7 7 7 6 7 7 7 7 7 7 7 7 7 8 8 9
13 12 11 11 10 9 8 8 7 7 7 7 6 6 6 5 5 4 4 4 4 4 4 5 5 6 6 7 7 7 7 7 8 8 8 8 8 8 8 8 8 9 9
13 13 12 12 11 10 9 8 7 7 7 7 7 7 6 6 5 5 4 4 4 5 4 5 5 6 6 7 7 7 8 8 8 9 9 10 10 10 10 10 10 10 11
13 13 13 12 11 11 9 9 8 8 8 8 8 8 7 7 7 6 5 5 6 6 5 5 5 6 6 7 8 8 9 9 9 10 11 11 11 12 12 12 12 12 12
14 14 13 12 12 11 10 10 9 9 9 8 8 8 8 8 8 7 7 6 7 7 6 6 6 7 7 7 8 9 9 10 11 11 12 13 13 13 13 14 14 14 14
14 14 14 13 12 12 11 10 9 9 10 10 9 10 9 9 9 8 8 7 7 7 7 7 7 7 8 8 9 10 11 11 12 13 13 14 14 14 14 15 15 15 16
14 15 15 14 13 12 12 11 11 11 11 11 10 10 10 10 10 9 9 9 9 9 9 9 8 9 9 10 11 12 13 13 14 14 15 16 16 16 16 17 17 17 18
14 15 15 14 14 13 13 11 11 12 12 11 10 11 11 11 11 11 11 11 10 10 10 10 10 10 11 12 12 13 14 15 16 16 17 17 17 17 18 18 19 19 19
12 13 14 14 13 13 13 12 11 11 11 11 11 12 12 12 12 12 12 12 11 11 11 11 11 12 13 14 15 16 16 17 18 18 18 19 19 19 20 20 20 21 21
11 13 14 15 14 14 13 12 12 12 12 12 12 12 12 12 13 13 13 12 12 12 12 12 13 14 14 16 16 17 18 19 19 19 20 20 21 21 22 22 23 23 24
12 13 14 15 14 14 13 13 13 13 12 12 13 13 13 13 13 13 12 12 13 13 14 14 15 16 17 17 18 19 20 21 21 21 21 22 23 23 24 25 25 26 27
13 13 13 14 14 13 13 14 14 13 13 13 13 13 13 13 13 13 13 13 13 14 15 16 17 17 18 19 20 21 22 22 22 23 23 24 24 25 26 27 28 28 29
13 13 13 14 14 14 14 14 14 14 13 14 14 14 14 14 13 12 13 13 14 15 16 17 18 19 20 21 22 22 23 24 24 24 25 26 27 27 28 29 30 30 31
14 14 14 14 15 15 15 15 14 14 14 14 14 14 14 13 13 13 13 14 15 16 17 18 19 20 21 22 23 24 25 26 26 27 28 29 30 31 31 32 32 33 33
14 14 14 15 15 15 15 15 15 15 14 13 13 13 13 13 14 14 15 16 17 18 19 20 21 22 23 24 25 26 27 28 29 30 31 31 33 34 35 35 35 36 36
15 15 15 15 15 16 16 15 15 15 15 15 15 15 15 15 16 16 17 18 18 19 20 21 22 24 25 26 27 29 30 31 32 32 33 34 35 36 37 38 38 39 39
17 16 16 16 16 16 17 16 16 16 16 16 16 16 17 17 17 17 18 19 20 21 22 23 24 26 27 29 30 31 33 34 34 35 36 37 38 39 39 40 40 41 41
17 17 17 17 17 17 17 17 17 17 17 17 17 17 18 18 18 19 20 21 22 23 24 26 28 29 30 31 33 34 35 36 36 37 38 38 39 40 41 41 42 43 43
18 18 18 18 17 18 18 18 18 18 18 18 18 19 19 19 20 20 21 23 24 26 27 28 30 31 33 34 36 36 37 37 37 38 39 40 41 42 43 44 44 45 46
18 18 18 19 18 18 19 19 19 19 19 20 20 20 20 21 21 22 23 24 25 27 29 31 32 33 35 36 37 37 38 38 39 40 41 43 44 45 45 46 46 47 48
18 18 18 19 19 19 20 20 20 21 21 21 21 21 22 22 23 24 26 27 28 30 31 33 34 35 36 37 38 38 39 40 42 43 44 45 46 47 47 47 48 49 50

GEFSMW_500_meanwind_186.txt.gz
Wind_Speed
12 12 11 10 10 9 8 9 8 7 7 7 7 6 5 4 4 3 2 2 1 1 2 2 3 4 4 5 5 5 5 5 5 5 4 4 4 4 4 4 4 4 5
12 12 11 10 10 9 8 8 8 8 7 7 7 6 5 5 4 3 3 3 2 2 2 3 3 4 4 4 5 5 5 5 5 5 5 5 4 4 4 4 4 4 5
13 13 11 10 10 9 9 8 8 8 8 7 7 6 5 5 5 4 4 3 3 3 3 3 3 4 4 4 4 5 5 5 5 4 5 5 4 4 4 4 4 5 6
13 12 11 10 10 9 9 9 8 8 8 8 7 7 6 6 5 5 4 4 3 3 3 3 3 4 4 5 4 5 4 4 5 4 4 5 5 5 5 4 5 5 6
13 12 11 11 10 9 9 10 9 8 8 8 8 8 7 7 6 6 5 4 4 4 3 3 4 4 4 5 4 4 4 4 5 5 5 5 5 5 5 5 6 7 7
13 12 12 11 10 10 10 9 9 9 9 9 9 8 8 7 7 6 6 5 4 4 4 4 4 4 5 5 5 5 5 4 4 5 5 5 5 6 6 7 7 8 8
13 13 13 13 12 11 10 9 9 9 9 9 9 9 9 8 8 7 6 6 5 5 5 5 5 5 5 5 5 5 5 5 5 6 6 6 6 7 7 8 8 9 9
14 14 14 13 12 12 10 10 10 9 9 9 10 10 9 9 8 7 7 6 6 6 6 6 6 6 6 6 5 6 6 6 6 6 6 6 7 8 9 9 9 10 11
15 15 15 14 13 12 11 11 11 10 10 10 10 10 10 9 9 8 8 8 7 7 7 7 7 7 7 7 7 6 7 6 6 7 7 8 9 9 10 10 11 12 12
15 15 15 15 14 13 13 12 11 11 11 11 11 10 10 9 9 9 9 9 8 8 8 8 8 8 8 8 8 8 8 8 8 9 9 10 11 11 12 12 13 13 14
15 15 15 15 14 13 13 13 12 12 12 12 12 11 11 11 10 10 9 10 10 10 10 10 10 10 9 9 9 9 9 10 10 11 11 12 12 13 13 14 15 15 16
14 14 14 14 14 14 14 13 13 13 13 13 13 12 12 12 12 11 11 11 11 11 11 11 11 11 10 10 10 10 10 11 12 13 13 14 14 15 15 16 16 17 18
13 14 14 14 14 14 14 14 14 14 14 14 13 13 13 13 13 12 12 13 13 13 13 13 12 12 11 11 11 11 12 13 14 14 15 15 16 16 17 18 18 19 20
13 13 14 14 14 15 15 15 15 14 14 14 14 14 14 14 14 14 14 14 14 14 13 13 13 13 13 12 13 13 13 14 15 15 16 16 17 18 19 20 21 21 22
13 13 14 14 14 14 15 15 15 14 14 14 14 14 15 15 15 14 14 14 14 14 14 14 14 14 14 14 14 14 14 15 16 16 17 18 19 20 21 22 23 23 24
13 14 14 14 14 14 14 15 15 15 15 15 15 14 15 15 15 15 15 14 15 15 15 14 14 14 14 14 14 15 16 16 17 18 19 20 21 22 23 24 25 26 27
13 13 13 14 14 14 15 15 15 15 15 15 15 15 14 14 15 15 15 15 14 14 14 14 15 15 15 15 15 16 17 18 19 20 21 22 23 24 25 26 27 28 29
13 13 13 14 14 14 14 15 15 15 15 15 15 15 14 14 15 15 14 14 14 15 15 14 14 15 16 17 17 18 19 19 21 22 23 24 25 26 27 28 29 30 31
14 14 14 14 14 14 14 14 15 15 15 15 15 15 15 15 15 15 15 15 15 14 15 15 15 16 17 18 19 20 20 22 23 25 26 27 28 29 30 31 31 32 34
15 15 15 15 15 15 15 15 15 15 15 16 16 17 16 16 16 16 16 16 15 15 15 16 17 18 19 20 21 21 23 24 26 27 28 30 31 31 33 33 34 35 36
15 16 16 16 16 16 16 17 17 17 17 16 17 17 18 17 17 17 17 16 16 16 17 18 19 20 21 21 22 24 25 27 28 30 31 32 33 34 35 35 36 37 38
15 16 16 16 17 17 17 17 17 17 17 17 17 17 18 18 17 17 17 17 18 18 19 20 21 21 22 23 25 26 28 29 31 32 33 34 35 36 36 37 37 38 40
16 15 16 16 16 17 17 18 18 18 18 18 17 17 17 17 18 18 18 19 19 20 21 22 23 23 24 26 27 29 30 31 33 34 35 36 36 37 37 38 40 41 42
16 16 16 16 17 18 18 18 19 19 19 19 19 18 19 19 19 20 20 21 22 22 23 24 24 25 27 28 30 31 32 33 34 36 36 37 37 38 39 40 42 43 44
17 17 17 17 18 19 19 18 18 18 19 20 20 21 20 20 21 22 22 23 23 24 25 25 26 28 29 30 31 33 34 35 36 37 38 38 39 40 41 43 45 46 47
18 18 18 18 18 18 19 19 19 19 19 19 20 21 21 21 21 22 23 24 25 26 26 27 28 29 30 31 33 35 36 37 38 39 39 40 41 43 44 46 47 48 49

GEFSMW_500_meanwind_192.txt.gz
Wind_Speed
10 10 10 9 9 8 8 8 8 7 6 6 5 5 4 4 4 4 3 3 3 3 3 3 4 5 5 5 6 6 6 7 7 7 7 6 6 6 6 6 6 6 7
10 11 10 9 9 8 8 8 8 7 6 6 5 5 5 5 5 4 4 4 4 3 3 4 5 5 5 5 6 6 6 7 7 7 7 7 7 6 6 6 6 7 7
10 11 10 10 9 8 8 8 8 7 7 6 6 6 5 5 5 5 4 4 4 4 4 4 4 5 5 5 6 6 7 7 7 7 7 7 7 7 7 7 7 7 7
10 10 10 10 9 9 8 7 7 7 7 7 7 6 6 6 5 5 5 5 5 5 5 5 5 5 5 5 6 6 7 7 7 7 7 7 7 7 7 7 7 8 8
11 11 11 10 10 10 9 8 8 7 7 8 8 7 7 7 6 6 6 6 6 6 6 6 5 5 5 5 6 6 7 7 7 7 7 8 8 8 8 8 8 9 9
11 11 11 10 10 11 10 9 8 8 8 8 8 8 7 7 7 7 7 7 7 7 7 6 6 5 5 6 6 7 7 7 7 7 8 8 8 8 9 9 9 9 10
11 11 11 11 11 11 10 10 9 9 8 9 9 9 8 8 8 8 7 7 7 7 7 7 6 6 6 6 7 7 7 7 7 8 8 8 9 9 10 10 10 10 10
11 12 12 12 12 12 11 10 9 9 8 8 9 9 9 9 8 8 8 8 8 8 8 7 7 7 7 8 8 8 8 7 8 8 9 9 9 10 11 11 12 12 12
13 13 12 13 12 12 12 12 11 9 9 9 9 10 9 9 9 9 9 9 9 9 9 9 9 8 8 8 8 8 8 8 8 9 9 9 10 11 12 13 13 13 13
13 13 13 13 13 13 13 12 11 10 10 10 10 10 9 9 10 10 9 9 9 10 10 10 10 10 9 9 8 8 9 9 9 9 10 10 11 12 12 13 14 14 15
13 13 13 13 13 13 12 12 12 12 11 11 11 11 10 10 11 11 10 10 11 11 11 11 11 11 10 10 10 10 10 10 10 10 11 12 13 13 14 14 15 16 16
13 13 13 13 13 13 13 13 13 12 12 12 12 12 12 12 11 11 11 11 12 12 11 12 12 12 11 11 11 11 11 12 12 12 12 13 14 15 15 16 17 17 18
13 13 13 13 13 13 13 13 13 13 13 13 13 12 12 12 12 12 12 12 12 13 13 13 13 13 13 13 13 13 13 13 13 14 14 14 15 16 17 18 18 19 20
12 13 12 12 13 13 13 13 13 13 13 13 13 12 12 12 12 12 13 13 14 14 14 14 15 15 15 15 14 14 14 14 15 15 16 16 16 17 18 19 20 20 21
12 12 12 12 13 13 13 13 12 12 13 13 13 12 13 13 13 13 14 15 15 15 15 15 16 16 15 15 14 14 15 15 16 17 17 17 18 19 19 20 21 22 23
12 12 12 13 13 14 14 14 14 13 13 13 13 13 13 14 14 14 15 16 16 16 15 16 15 15 15 15 15 15 16 17 18 18 19 19 19 21 22 23 24 24 25
12 12 13 13 14 14 15 15 15 14 14 14 13 14 14 15 15 15 15 15 16 16 15 15 14 14 15 15 16 17 18 18 19 20 20 21 21 22 24 24 25 26 27
12 13 13 14 14 14 14 15 15 15 14 14 14 14 15 15 15 15 15 15 15 15 14 14 14 15 15 16 17 17 18 19 20 21 22 23 23 24 25 26 27 28 29
14 14 13 13 14 14 15 15 15 15 15 15 14 15 15 16 16 16 16 16 16 16 15 15 16 16 17 18 18 19 20 21 21 22 23 24 25 27 28 29 30 30 32
15 15 14 14 14 15 15 15 15 14 15 15 15 16 16 16 17 17 17 17 16 16 17 17 18 18 18 18 19 20 21 22 23 24 25 26 27 29 30 31 32 32 34
15 15 15 15 15 16 16 15 15 15 15 16 16 16 17 17 17 18 18 18 18 18 18 19 19 20 20 19 20 21 22 23 25 26 27 28 29 31 32 33 34 35 36
16 16 16 16 16 17 17 17 16 16 16 16 16 17 17 17 17 18 19 19 19 19 19 20 20 20 20 20 21 22 23 25 26 27 29 30 31 33 34 35 36 37 37
17 17 17 17 17 17 17 18 18 17 17 17 17 17 17 17 17 18 19 20 20 20 20 21 21 21 21 22 23 24 25 26 28 29 31 32 33 34 36 37 37 38 39
17 17 18 17 17 17 17 18 18 17 18 18 18 17 17 17 17 19 19 19 20 20 20 21 21 21 22 23 24 26 27 29 30 32 33 34 35 36 37 38 39 40 41
18 18 17 17 17 17 17 17 17 17 18 18 18 18 18 18 18 19 20 20 21 21 21 22 22 23 24 26 27 29 30 31 32 34 35 36 37 38 39 40 41 42 43
18 18 18 18 18 18 17 17 18 18 19 19 19 19 19 19 19 20 20 21 22 22 22 24 25 26 27 28 30 31 32 33 34 35 36 37 38 39 40 41 42 43 44